Regional Weather Roundup
Issued by NWS Little Rock, AR

Home | Current Version | Previous Version | Graphics & Text | Print | Product List | Glossary On
Versions: 1 2 3 4 5 6 7 8 9 10 11 12 13 14 15 16 17 18 19 20 21 22 23 24 25 26 27 28 29 30 31 32 33 34 35 36 37 38 39 40 41 42 43 44 45 46 47 48 49 50
405
ASUS44 KLZK 281305
RWRLZK

WEATHER ROUNDUP FOR ARKANSAS
NATIONAL WEATHER SERVICE LITTLE ROCK AR
800 AM CDT SUN AUG 28 2016

NOTE: "FAIR" INDICATES FEW OR NO CLOUDS BELOW 12,000 FEET WITH NO
SIGNIFICANT WEATHER AND/OR OBSTRUCTIONS TO VISIBILITY.

ARZ001-003-010-029-281400-
NORTHWEST ARKANSAS

CITY           SKY/WX    TMP DP  RH WIND       PRES   REMARKS
FAYETTEVILLE   SUNNY     66  66 100 CALM      30.15R
FORT SMITH     SUNNY     75  71  87 CALM      30.11R
HARRISON       SUNNY     70  70 100 CALM      30.17R
BENTONVILLE    SUNNY     73  66  78 CALM      30.16R
ROGERS         SUNNY     74  71  91 SE6       30.17R
SILOAM SPGS    SUNNY     72  63  73 CALM      30.16R
HIGHFILL       SUNNY     73  71  93 CALM      30.15R
SPRINGDALE     SUNNY     72  72 100 CALM      30.17R
$$

ARZ004-005-016-281400-
NORTH CENTRAL ARKANSAS

CITY           SKY/WX    TMP DP  RH WIND       PRES   REMARKS
BATESVILLE     SUNNY     73  72  94 W5        30.13R
FLIPPIN        CLOUDY    72  68  88 CALM      30.12R VSB<1/4
MTN HOME       SUNNY     74  74 100 CALM      30.14R
$$

ARZ040-041-281400-
WEST CENTRAL ARKANSAS

CITY           SKY/WX    TMP DP  RH WIND       PRES   REMARKS
MENA           SUNNY     72  70  94 CALM      30.13R
MOUNT IDA      PTSUNNY   73  71  93 CALM      30.10R
$$

ARZ009-017-025-026-028-281400-
NORTHEAST ARKANSAS

CITY           SKY/WX    TMP DP  RH WIND       PRES   REMARKS
CORNING          N/A     75  75 100 N6        30.13R
JONESBORO      SUNNY     77  73  87 NE7       30.11R
NEWPORT        PTSUNNY   76  74  93 N5        30.11R
WALNUT RIDGE   SUNNY     75  72  88 N6        30.11R
BLYTHEVILLE    SUNNY     77  74  90 E6        30.12R
$$

ARZ022-023-033-042-044-281400-
CENTRAL ARKANSAS

CITY           SKY/WX    TMP DP  RH WIND       PRES   REMARKS
LITTLE ROCK    MOSUNNY   80  73  79 N6        30.10R
N LITTLE ROCK    N/A     78  73  86 CALM      30.08R
JACKSONVILLE   SUNNY     78  75  92 CALM      30.10R
SEARCY         SUNNY     76  74  93 N6        30.12R
HOT SPRINGS    MOSUNNY   74  72  93 CALM      30.10R
RUSSELLVILLE   MOSUNNY   74  72  93 CALM      30.10R
$$

ARZ036-281400-
EAST ARKANSAS

CITY           SKY/WX    TMP DP  RH WIND       PRES   REMARKS
WEST MEMPHIS   SUNNY     76  73  91 E5        30.09R
$$

ARZ050-053-066-070-073-281400-
SOUTHWEST ARKANSAS

CITY           SKY/WX    TMP DP  RH WIND       PRES   REMARKS
ARKADELPHIA    FAIR      76  73  91 NE3       30.08S
TEXARKANA      CLOUDY    75  73  93 CALM      30.08R FOG
EL DORADO      CLOUDY    75  74  96 N3        30.07R
DE QUEEN       MOSUNNY   73  73 100 CALM      30.07R FOG
$$

ARZ056-057-069-281400-
SOUTHEAST ARKANSAS

CITY           SKY/WX    TMP DP  RH WIND       PRES   REMARKS
PINE BLUFF     SUNNY     77  74  90 N6        30.08R
STUTTGART      SUNNY     77  72  83 NE6       30.09R
MONTICELLO     MOSUNNY   79  74  84 NE5       30.07R

$$






USA.gov is the U.S. government's official web portal to all federal, state and local government web resources and services.